Weather in Frunze

Russia / Republic of Crimea     45°01′44″N   33°38′04″E
temp.,
°C
wind,
m/s
gust,
m/s
humid.,
%
clouds,
%
prec.,
mm/h
press.,
hPa
HPBL,
m
5 december, sun
sun500:00+8nne5694100 5.3 1007239
03:00+6nne689398 6.6 1009366
06:00+6n2289100 0.0 1011325
09:00+6nw2286100 0.0 1013443
12:00+6wnw2281100 0.0 1014427
15:00+7nw2177100 0.0 1014432
18:00+5ne2284100 0.0 101444
21:00+5e22875 0.0 101525
6 december, mon
mon600:00+6sse11858 0.0 101518
03:00+7ese228487 0.0 101521
06:00+8e227895 0.0 101423
09:00+9ese2277100 0.0 101523
12:00+14ssw386333 0.0 1014493
15:00+15s49669 0.1 1013304
18:00+14sse3565100 0.0 101472
21:00+13se4767100 0.0 1014114
7 december, tue
tue700:00+14se5965100 0.0 1014132
03:00+14se476294 0.0 101394
06:00+13se455938 0.0 101261
09:00+13se4655100 0.0 101163
12:00+18se464261 0.0 1009174
15:00+19ese23415 0.0 1007142
18:00+14ene33545 0.0 100632
21:00+12e33547 0.0 100424
8 december, wed
wed800:00+12sse225560 0.0 100313
03:00+12ese335491 0.0 100219
06:00+12sse335699 0.0 100135
09:00+12ssw226587 0.0 100227
12:00+15s4656100 0.0 1002579
15:00+14ssw4660100 0.0 1002693
18:00+10ssw81193100 0.6 1004850
21:00+9sw101392100 6.1 1006831
9 december, thu
thu900:00+8sw91187100 4.2 10091052
03:00+8wsw81186100 4.6 1011974
06:00+8wsw81186100 0.3 10131062
09:00+8wsw81078100 0.6 10161087
12:00+9wsw7976100 0.3 10171024
15:00+9sw6872100 0.6 1017948
18:00+8sw4776100 0.1 1019317
21:00+8s48815 0.1 1019310